SCP
0 0 0 0 0 0 0 0 0 0 0 0 0 0 -0 -0 0 0 -0 0 -0 -0 -0 -1 -1 -1 -1 -1 -1 -1 -1 -1 -0 -0 -0 -0 -0 -0 -0 -0 -0 -0 -0 -0 -0 -0 0 0 0
0 0 0 0 0 0 0 0 0 0 0 0 0 0 0 0 0 0 0 0 0 0 0 0 -0 -0 -1 -1 -1 -1 -1 -0 -0 -0 -0 -0 -0 -0 -0 -0 -0 -0 -0 -0 -0 0 0 0 0
0 0 0 0 0 0 0 0 0 0 0 0 0 0 0 1 0 0 0 0 0 0 1 0 0 -0 -0 -0 -0 -1 -1 -0 -0 -0 -0 -0 -0 -0 -0 -0 -0 -0 -0 0 0 0 0 0 -0
0 0 0 0 0 0 0 -0 0 0 0 0 0 0 0 0 0 0 0 1 1 1 1 0 0 0 0 -0 -0 -0 -0 -0 -0 -0 -0 -0 -0 -0 -0 -0 -0 -0 -0 -0 -0 0 -0 -0 -0
0 0 0 0 0 0 0 0 0 0 -0 -0 0 0 0 0 1 1 1 1 1 1 1 1 0 0 0 0 0 0 -0 -0 -0 -0 -0 -0 -0 -0 -0 -0 -0 -0 -0 -0 0 0 -0 -0 -0
0 0 0 0 0 0 0 0 0 0 0 -0 0 0 1 0 1 1 1 1 1 1 1 1 1 1 1 1 0 -0 -0 -0 -0 -0 -0 -0 -0 -0 -0 -0 0 0 0 0 0 0 -0 -0 -0
0 0 0 0 0 0 0 0 0 0 0 0 -0 0 0 0 1 1 1 1 1 1 1 1 1 1 1 1 0 0 0 0 0 0 -0 -0 -0 -0 0 0 0 0 0 0 0 0 0 -0 -0
0 0 0 0 0 0 0 0 0 0 0 0 0 0 0 1 1 1 2 2 2 2 2 1 1 1 1 1 1 1 0 0 0 0 0 0 0 0 0 0 0 0 0 0 0 0 0 0 0
0 0 0 0 0 0 0 0 0 0 0 0 0 0 0 0 1 3 2 2 2 2 2 1 1 1 1 1 1 1 1 0 0 1 0 0 0 0 0 0 0 0 0 0 0 0 0 0 0
0 0 0 0 0 0 0 0 0 0 0 0 0 0 0 0 2 3 2 1 1 1 1 1 1 1 1 1 1 1 1 1 1 1 1 0 0 0 0 0 0 0 0 0 0 0 0 0 0
0 0 0 0 0 0 0 0 0 0 0 0 0 0 1 1 3 3 3 1 1 1 1 1 1 1 1 1 1 1 1 1 1 1 1 0 0 0 0 0 0 0 0 0 0 0 0 0 0
0 0 0 0 0 0 0 0 0 0 0 0 0 0 2 1 1 2 2 2 2 1 1 1 1 1 1 2 1 1 2 1 1 1 0 0 0 0 0 0 0 0 0 0 0 0 0 0 0
0 0 0 0 0 0 0 0 0 0 0 0 0 0 2 1 0 0 0 2 2 1 1 1 1 1 1 1 1 1 1 1 0 1 1 0 0 0 0 0 0 0 0 0 0 0 0 0 0
0 0 0 0 0 0 0 0 0 -0 -0 0 0 0 0 1 0 0 1 1 2 1 1 1 1 1 1 1 1 1 1 1 1 1 1 0 0 0 0 0 0 0 0 0 0 0 0 0 0
0 0 0 0 0 0 0 0 -0 0 0 0 0 0 0 0 0 0 0 1 1 1 1 1 1 1 1 1 1 1 1 1 1 1 1 1 0 0 0 0 0 0 0 0 0 0 0 0 0
0 0 0 0 0 0 0 0 0 -0 0 0 0 0 0 0 0 0 0 1 1 1 1 1 1 1 0 0 0 0 0 0 0 0 0 0 0 0 0 0 0 0 0 0 0 0 0 0 0
0 0 0 0 0 0 0 0 -0 0 0 0 0 0 0 0 0 0 0 0 0 0 1 0 0 0 0 0 0 0 0 0 0 0 0 0 0 0 0 0 0 0 0 0 0 0 0 0 0
0 0 0 0 0 0 0 0 0 0 0 0 0 0 0 0 0 0 0 0 0 0 0 0 0 0 0 0 0 0 0 0 0 0 0 0 0 0 0 0 0 0 0 0 0 0 0 0 0
0 0 0 0 0 0 0 0 0 0 0 0 0 0 0 0 0 0 0 1 1 0 0 0 0 0 0 0 0 0 0 0 0 0 0 0 0 0 0 0 0 0 0 0 0 0 0 0 0
0 0 0 0 0 0 0 0 0 0 0 0 0 0 0 0 0 0 1 1 1 0 0 0 0 0 0 0 0 0 0 0 0 0 0 0 0 0 0 0 0 0 0 0 0 0 0 0 0
0 0 0 0 0 0 0 0 0 0 0 0 0 0 0 0 0 0 1 1 2 1 0 0 0 0 0 0 0 0 0 0 0 0 0 0 0 0 0 0 0 0 0 0 0 0 0 0 0
0 0 0 0 0 0 0 0 0 0 0 0 0 0 0 0 0 0 1 1 1 0 1 0 0 0 0 0 0 0 0 0 0 0 0 0 0 0 0 0 0 0 0 0 0 0 0 0 0
0 0 0 0 0 0 0 0 0 0 0 0 0 0 0 0 0 0 0 0 1 1 1 0 0 0 0 0 0 0 0 0 0 0 0 0 0 0 0 0 0 0 0 0 0 0 0 0 0
0 0 0 0 0 0 0 0 0 0 0 0 0 0 0 0 0 0 0 1 1 1 0 0 0 0 0 0 0 0 0 0 0 0 0 0 0 0 0 0 0 0 0 0 0 0 0 0 0
0 0 0 0 0 0 0 0 0 0 0 0 0 0 0 0 0 0 1 1 1 1 0 0 0 0 0 0 0 0 0 0 0 0 0 0 0 0 0 0 0 0 0 0 0 0 0 0 0
0 0 0 0 0 0 0 0 0 0 0 0 0 0 0 0 0 1 1 1 1 1 0 0 0 0 0 0 0 0 0 0 0 0 0 0 0 0 0 0 0 0 0 0 0 0 0 0 0
0 0 0 0 0 0 0 0 0 0 0 0 0 0 0 0 0 0 0 0 0 0 0 0 0 0 0 0 0 0 0 0 0 0 0 0 0 0 0 0 0 0 0 0 0 0 0 0 0
0 0 0 0 0 0 0 0 0 0 0 0 0 0 0 0 0 0 0 0 0 0 0 0 0 0 0 0 0 0 0 0 0 0 0 0 0 0 0 0 0 0 0 0 0 0 0 0 0
0 0 0 0 0 0 0 0 0 0 0 0 0 0 0 0 0 0 0 0 0 0 0 0 0 0 0 0 0 0 0 0 0 0 0 0 0 0 0 0 0 0 0 0 0 0 0 0 0
0 0 0 0 0 0 0 0 0 0 0 0 0 0 0 0 0 0 0 0 0 0 0 0 0 0 0 0 0 0 0 0 0 0 0 0 0 0 0 0 0 0 0 0 0 0 0 0 0
Wind_Speed_500mb
23 21 15 4 5 8 7 14 5 6 6 7 28 12 12 2 7 8 7 36 34 57 62 62 60 54 47 41 38 35 30 25 22 22 24 24 23 26 30 28 24 23 23 24 23 23 23 23 23
19 16 13 4 8 3 12 10 13 14 11 29 28 26 3 4 4 4 18 38 43 55 62 65 59 52 47 42 38 34 28 24 22 23 25 26 28 30 31 27 24 22 22 24 24 23 23 23 23
18 20 11 9 8 21 13 9 12 13 15 15 9 18 13 11 8 5 17 36 48 57 62 63 59 53 48 44 40 34 29 23 22 24 27 28 30 33 30 25 21 21 24 24 23 23 23 23 25
15 13 3 8 17 16 15 9 2 11 8 13 21 12 21 17 4 14 22 39 49 60 62 62 59 54 48 44 40 36 29 24 22 23 27 29 33 35 31 27 24 23 24 24 23 23 24 26 26
20 8 3 5 14 11 8 11 9 17 15 6 28 10 16 20 10 12 30 37 47 63 64 62 58 53 50 45 41 35 30 24 21 21 25 28 32 34 31 27 26 25 25 25 24 23 24 24 21
9 4 5 10 17 13 10 22 11 10 23 12 13 8 11 21 19 15 45 40 52 61 64 63 60 54 50 46 42 37 33 27 21 19 21 25 27 28 27 26 23 22 23 25 23 22 22 22 20
11 7 10 8 18 25 10 21 11 11 10 17 11 7 13 26 24 24 50 39 53 58 61 61 59 57 54 49 45 41 36 31 25 20 18 20 23 24 24 23 22 18 17 20 22 22 22 21 20
10 8 7 12 13 25 11 23 20 13 11 9 10 9 13 17 32 36 48 46 57 56 57 60 59 56 54 52 47 43 40 36 32 26 21 20 21 23 24 24 23 21 18 17 20 21 22 22 21
16 4 10 13 13 10 9 8 12 8 13 11 6 22 39 34 31 44 49 54 64 60 59 61 60 59 56 51 47 44 43 41 37 32 26 21 20 20 23 24 25 23 20 18 18 18 19 19 19
12 10 20 13 11 8 8 8 6 8 16 11 5 34 32 41 45 55 59 64 66 63 65 65 65 62 58 53 51 48 46 45 42 37 32 27 23 19 18 21 23 22 20 17 17 18 20 22 22
16 15 12 14 21 25 13 15 20 9 11 23 8 38 31 28 57 64 60 59 62 61 62 65 64 60 58 57 55 52 49 48 46 43 38 31 27 25 22 21 22 26 25 26 26 25 24 21 21
12 23 20 18 27 13 9 30 15 29 29 35 28 33 34 31 47 55 57 56 58 60 61 63 62 60 59 53 53 53 53 51 49 45 41 38 34 31 26 24 25 30 35 33 31 28 25 24 24
9 5 31 59 46 37 41 20 26 29 23 35 40 38 32 37 48 47 46 50 50 53 55 56 55 55 54 56 56 55 52 48 43 44 42 38 36 33 30 30 32 36 39 38 33 30 29 27 27
16 36 34 27 31 48 34 49 45 7 10 27 31 35 31 40 38 43 43 47 52 51 48 46 48 52 57 56 55 53 47 43 44 45 43 41 39 36 33 30 28 31 36 33 32 28 26 23 20
10 9 8 20 42 14 21 37 34 37 35 48 44 33 34 39 41 42 49 49 48 44 44 44 49 55 55 58 56 51 49 49 49 46 45 45 42 38 32 35 36 35 32 30 29 29 25 20 20
14 15 19 13 20 17 34 57 7 20 31 37 40 42 39 38 36 33 34 45 60 51 45 41 45 49 55 58 54 55 55 54 52 49 45 44 40 37 36 37 40 35 34 27 32 32 32 28 25
11 8 11 8 18 15 24 2 20 49 34 39 45 43 46 47 44 42 40 40 45 46 44 46 47 48 55 61 61 57 59 56 52 51 43 30 33 36 37 38 37 33 31 26 32 39 45 54 58
10 8 7 18 19 18 18 11 18 26 26 38 52 50 47 46 43 41 47 47 51 54 51 51 49 51 56 62 63 65 66 60 53 47 36 28 31 30 34 38 26 25 26 32 41 53 48 46 38
4 9 24 12 12 18 36 17 21 26 27 22 38 45 43 44 42 39 46 58 63 64 60 53 54 55 59 63 69 75 69 61 51 46 37 30 26 25 30 24 24 27 35 46 49 31 34 32 36
31 12 12 8 8 11 9 15 18 20 12 28 43 52 54 47 45 43 51 60 69 65 66 61 59 60 59 66 71 71 61 46 39 39 27 22 26 37 24 23 22 23 35 36 27 27 28 30 29
40 36 9 7 3 4 3 11 10 15 11 26 39 46 47 48 51 44 54 67 75 73 73 65 59 56 63 60 63 62 51 46 41 37 29 30 31 31 29 31 35 33 28 18 18 26 33 34 30
36 24 16 9 4 7 7 10 9 11 16 9 33 43 52 53 47 47 49 63 78 72 74 60 57 57 59 58 54 54 47 43 36 33 22 22 24 23 26 30 26 21 22 21 22 27 32 33 27
18 35 19 9 7 2 5 3 13 6 10 19 19 51 52 49 46 44 47 52 51 75 71 61 59 59 57 49 44 39 38 25 33 28 29 26 27 29 26 23 20 20 25 27 30 34 30 30 29
18 31 17 8 8 6 12 13 9 9 11 11 12 33 43 46 44 43 44 51 64 72 74 66 61 60 48 42 39 35 26 22 11 6 11 15 23 28 27 24 26 29 27 25 24 26 29 33 36
42 24 8 5 5 13 12 14 16 6 7 7 13 8 10 20 28 38 47 50 60 70 73 66 63 47 43 40 38 32 26 18 15 14 17 22 23 25 30 28 23 22 23 25 28 31 36 40 44
31 27 11 13 12 6 11 11 9 9 12 15 20 25 18 10 20 28 26 37 49 64 65 60 44 40 38 34 27 24 25 24 25 23 25 26 27 29 31 30 25 26 28 30 33 37 42 47 53
29 23 15 13 3 9 9 0 2 13 19 20 24 38 43 45 45 45 43 44 53 53 40 26 24 27 34 30 19 21 20 20 18 16 19 24 25 25 24 25 27 30 34 38 43 48 53 56 60
42 21 16 4 12 11 8 15 8 7 15 17 22 33 46 54 50 48 48 47 51 45 38 38 36 34 33 20 3 9 13 14 17 20 24 23 21 21 23 28 34 39 43 47 51 54 56 58 60
14 26 8 10 8 10 9 7 3 14 14 21 21 34 50 64 58 57 62 65 60 60 55 48 37 28 19 5 1 9 15 17 16 17 17 18 21 25 29 33 38 43 47 49 52 54 56 58 60
21 29 15 12 5 3 7 3 4 13 19 25 34 43 56 74 78 76 79 76 69 58 47 35 21 4 7 21 7 6 2 2 6 9 12 17 23 29 34 37 42 46 49 52 55 57 57 60 64
Wind_Direction_500mb
241 238 249 259 46 62 252 255 254 259 275 30 322 272 261 215 180 210 299 168 165 173 172 173 172 173 172 170 166 165 165 166 167 167 167 166 163 158 153 151 145 145 148 149 148 149 148 146 146
218 215 194 154 124 184 250 221 216 232 261 336 328 338 309 295 244 312 152 161 168 175 173 171 171 173 171 167 164 163 162 160 160 165 166 162 161 159 157 154 148 146 145 145 144 141 141 140 140
196 188 176 144 176 224 231 212 180 253 284 324 326 338 330 315 321 211 183 164 168 178 174 171 172 173 172 170 167 167 164 160 158 162 163 162 161 161 160 156 149 143 144 143 139 137 135 137 138
176 177 129 136 212 256 203 147 111 312 29 93 14 319 316 282 262 171 177 167 173 178 175 175 174 174 173 172 172 169 168 162 156 160 164 166 167 167 165 161 156 150 147 144 141 139 138 140 142
182 166 97 233 247 242 256 254 320 311 307 141 327 273 282 272 224 169 183 176 179 179 177 178 177 175 176 178 177 175 174 169 161 160 168 170 173 174 172 169 163 157 154 153 154 153 153 157 162
189 132 111 219 247 243 246 243 254 249 281 322 318 275 274 274 237 174 179 180 178 180 180 180 178 179 180 183 181 181 179 176 171 165 167 174 177 180 181 177 172 165 163 164 166 167 170 179 185
145 104 217 212 244 262 219 236 217 236 280 297 291 242 257 260 231 193 179 186 177 182 183 183 182 182 184 186 187 187 183 182 179 173 169 175 181 182 187 187 183 179 176 176 179 185 188 194 203
200 123 195 222 214 257 203 224 247 202 247 313 333 228 258 315 217 189 183 184 179 182 187 185 187 188 188 191 191 190 190 190 188 184 178 178 184 188 190 197 197 192 194 196 197 199 204 210 215
190 179 211 219 196 238 320 178 175 201 265 311 304 277 266 275 233 187 182 181 183 187 189 189 189 192 194 195 194 194 196 196 197 196 195 196 196 197 200 199 205 207 208 210 215 217 223 231 230
172 195 211 209 203 227 229 276 3 313 312 295 12 330 302 246 223 191 184 184 187 189 189 190 192 194 194 198 200 200 201 201 201 203 205 205 208 209 212 217 219 223 223 227 225 226 229 235 241
202 221 202 216 216 239 241 262 260 201 262 261 339 328 314 215 201 194 188 188 190 195 193 193 195 196 198 201 203 204 204 204 205 207 209 212 213 214 217 222 229 228 226 225 225 228 238 246 252
219 221 207 217 224 237 252 252 274 227 241 262 279 315 294 203 190 187 190 192 196 196 197 198 199 200 203 207 210 212 210 208 209 211 214 218 219 218 217 222 221 218 221 225 233 238 249 258 266
217 220 209 230 240 247 261 245 255 246 247 262 280 288 278 203 192 195 206 203 205 200 201 203 205 206 210 213 215 216 214 212 214 215 219 222 224 221 216 216 222 220 218 223 234 243 253 259 261
203 199 227 228 227 240 252 262 254 65 256 274 271 270 243 213 213 216 213 216 214 207 210 208 207 213 216 218 219 220 214 212 214 216 220 224 226 223 219 221 225 227 225 223 230 241 248 254 261
178 237 259 229 225 209 212 268 241 254 262 273 273 271 227 214 215 224 235 230 223 216 216 215 217 222 221 223 221 218 214 214 213 216 221 225 225 221 221 224 219 217 225 226 235 241 245 253 235
194 230 247 189 179 221 198 254 26 235 229 237 253 248 235 215 215 213 212 229 232 226 224 217 223 225 225 224 221 217 214 217 216 217 224 230 228 225 228 232 225 225 232 234 240 241 244 240 245
222 195 193 192 200 177 184 134 244 246 239 236 245 245 235 228 218 215 218 214 217 212 210 210 215 217 218 218 218 218 213 216 223 225 231 234 230 235 236 237 235 239 242 248 266 271 273 276 271
194 174 186 188 207 207 222 217 281 262 234 235 240 235 232 225 219 222 215 210 207 204 204 210 211 212 215 218 218 214 216 228 236 232 238 245 263 238 234 239 243 250 272 268 259 274 281 270 262
227 186 202 204 204 164 230 241 236 254 242 227 240 244 238 230 232 222 218 212 205 203 201 203 206 211 213 218 221 220 233 241 237 236 254 265 240 250 250 255 256 265 270 265 270 262 264 274 269
231 245 236 257 195 160 226 242 226 249 220 230 234 238 245 246 243 225 211 212 207 204 202 205 206 212 217 224 228 231 237 236 242 253 234 224 248 251 223 238 222 241 269 271 247 247 258 267 266
213 218 195 155 208 141 138 288 215 252 225 243 249 245 246 243 238 228 210 210 210 208 205 205 210 214 222 229 232 236 235 246 243 226 249 263 250 237 218 234 251 263 251 242 246 251 252 267 266
209 192 187 205 102 213 144 267 261 225 268 252 261 257 242 239 237 231 218 210 211 209 205 203 206 212 221 226 227 236 242 243 232 259 263 252 242 220 227 232 238 245 240 239 247 247 258 255 255
208 179 194 192 170 142 227 41 271 244 258 268 254 247 239 237 235 232 229 216 224 211 202 200 202 215 219 225 229 233 239 233 266 268 244 225 207 224 232 242 238 239 246 248 247 240 246 257 259
181 163 158 145 126 262 187 161 274 200 205 287 258 224 222 228 233 236 228 216 212 207 202 204 207 217 220 217 219 225 222 250 274 272 222 213 215 224 239 244 240 245 252 256 253 251 256 257 258
186 156 121 116 163 217 208 151 240 169 10 309 308 358 231 225 228 219 217 211 206 201 200 204 211 214 216 208 208 212 218 231 243 237 243 232 220 238 252 253 250 252 246 248 246 249 251 255 262
197 166 148 161 179 173 118 219 237 50 32 48 69 83 89 149 193 184 182 180 186 190 197 205 210 209 201 195 194 211 228 238 225 223 228 234 237 241 240 240 237 243 245 246 249 254 262 270 276
175 196 172 100 113 107 197 31 353 62 57 67 73 86 90 96 116 130 145 152 171 179 186 179 190 185 179 188 205 231 223 231 232 231 226 215 214 211 215 229 241 249 257 262 266 271 275 277 280
183 159 166 102 158 176 210 165 189 94 109 103 99 96 101 103 116 126 132 141 145 157 153 150 144 136 122 73 159 159 175 171 177 184 187 194 201 213 229 241 251 258 265 271 275 276 278 280 282
131 180 123 117 147 150 136 250 303 145 134 122 98 102 99 106 116 121 124 122 127 131 133 126 122 110 99 330 42 127 144 154 159 170 186 207 227 242 251 258 265 270 272 275 278 282 286 291 293
191 174 151 176 196 116 118 236 114 115 117 117 104 97 99 108 112 114 111 111 109 106 107 110 113 254 185 211 258 274 268 219 236 247 256 262 265 269 272 274 277 279 282 286 289 293 296 298 298
Wind_Speed_850mb
23 21 15 4 5 8 7 14 5 6 6 7 28 12 12 2 7 8 7 36 34 57 62 62 60 54 47 41 38 35 30 25 22 22 24 24 23 26 30 28 24 23 23 24 23 23 23 23 23
19 16 13 4 8 3 12 10 13 14 11 29 28 26 3 4 4 4 18 38 43 55 62 65 59 52 47 42 38 34 28 24 22 23 25 26 28 30 31 27 24 22 22 24 24 23 23 23 23
18 20 11 9 8 21 13 9 12 13 15 15 9 18 13 11 8 5 17 36 48 57 62 63 59 53 48 44 40 34 29 23 22 24 27 28 30 33 30 25 21 21 24 24 23 23 23 23 25
15 13 3 8 17 16 15 9 2 11 8 13 21 12 21 17 4 14 22 39 49 60 62 62 59 54 48 44 40 36 29 24 22 23 27 29 33 35 31 27 24 23 24 24 23 23 24 26 26
20 8 3 5 14 11 8 11 9 17 15 6 28 10 16 20 10 12 30 37 47 63 64 62 58 53 50 45 41 35 30 24 21 21 25 28 32 34 31 27 26 25 25 25 24 23 24 24 21
9 4 5 10 17 13 10 22 11 10 23 12 13 8 11 21 19 15 45 40 52 61 64 63 60 54 50 46 42 37 33 27 21 19 21 25 27 28 27 26 23 22 23 25 23 22 22 22 20
11 7 10 8 18 25 10 21 11 11 10 17 11 7 13 26 24 24 50 39 53 58 61 61 59 57 54 49 45 41 36 31 25 20 18 20 23 24 24 23 22 18 17 20 22 22 22 21 20
10 8 7 12 13 25 11 23 20 13 11 9 10 9 13 17 32 36 48 46 57 56 57 60 59 56 54 52 47 43 40 36 32 26 21 20 21 23 24 24 23 21 18 17 20 21 22 22 21
16 4 10 13 13 10 9 8 12 8 13 11 6 22 39 34 31 44 49 54 64 60 59 61 60 59 56 51 47 44 43 41 37 32 26 21 20 20 23 24 25 23 20 18 18 18 19 19 19
12 10 20 13 11 8 8 8 6 8 16 11 5 34 32 41 45 55 59 64 66 63 65 65 65 62 58 53 51 48 46 45 42 37 32 27 23 19 18 21 23 22 20 17 17 18 20 22 22
16 15 12 14 21 25 13 15 20 9 11 23 8 38 31 28 57 64 60 59 62 61 62 65 64 60 58 57 55 52 49 48 46 43 38 31 27 25 22 21 22 26 25 26 26 25 24 21 21
12 23 20 18 27 13 9 30 15 29 29 35 28 33 34 31 47 55 57 56 58 60 61 63 62 60 59 53 53 53 53 51 49 45 41 38 34 31 26 24 25 30 35 33 31 28 25 24 24
9 5 31 59 46 37 41 20 26 29 23 35 40 38 32 37 48 47 46 50 50 53 55 56 55 55 54 56 56 55 52 48 43 44 42 38 36 33 30 30 32 36 39 38 33 30 29 27 27
16 36 34 27 31 48 34 49 45 7 10 27 31 35 31 40 38 43 43 47 52 51 48 46 48 52 57 56 55 53 47 43 44 45 43 41 39 36 33 30 28 31 36 33 32 28 26 23 20
10 9 8 20 42 14 21 37 34 37 35 48 44 33 34 39 41 42 49 49 48 44 44 44 49 55 55 58 56 51 49 49 49 46 45 45 42 38 32 35 36 35 32 30 29 29 25 20 20
14 15 19 13 20 17 34 57 7 20 31 37 40 42 39 38 36 33 34 45 60 51 45 41 45 49 55 58 54 55 55 54 52 49 45 44 40 37 36 37 40 35 34 27 32 32 32 28 25
11 8 11 8 18 15 24 2 20 49 34 39 45 43 46 47 44 42 40 40 45 46 44 46 47 48 55 61 61 57 59 56 52 51 43 30 33 36 37 38 37 33 31 26 32 39 45 54 58
10 8 7 18 19 18 18 11 18 26 26 38 52 50 47 46 43 41 47 47 51 54 51 51 49 51 56 62 63 65 66 60 53 47 36 28 31 30 34 38 26 25 26 32 41 53 48 46 38
4 9 24 12 12 18 36 17 21 26 27 22 38 45 43 44 42 39 46 58 63 64 60 53 54 55 59 63 69 75 69 61 51 46 37 30 26 25 30 24 24 27 35 46 49 31 34 32 36
31 12 12 8 8 11 9 15 18 20 12 28 43 52 54 47 45 43 51 60 69 65 66 61 59 60 59 66 71 71 61 46 39 39 27 22 26 37 24 23 22 23 35 36 27 27 28 30 29
40 36 9 7 3 4 3 11 10 15 11 26 39 46 47 48 51 44 54 67 75 73 73 65 59 56 63 60 63 62 51 46 41 37 29 30 31 31 29 31 35 33 28 18 18 26 33 34 30
36 24 16 9 4 7 7 10 9 11 16 9 33 43 52 53 47 47 49 63 78 72 74 60 57 57 59 58 54 54 47 43 36 33 22 22 24 23 26 30 26 21 22 21 22 27 32 33 27
18 35 19 9 7 2 5 3 13 6 10 19 19 51 52 49 46 44 47 52 51 75 71 61 59 59 57 49 44 39 38 25 33 28 29 26 27 29 26 23 20 20 25 27 30 34 30 30 29
18 31 17 8 8 6 12 13 9 9 11 11 12 33 43 46 44 43 44 51 64 72 74 66 61 60 48 42 39 35 26 22 11 6 11 15 23 28 27 24 26 29 27 25 24 26 29 33 36
42 24 8 5 5 13 12 14 16 6 7 7 13 8 10 20 28 38 47 50 60 70 73 66 63 47 43 40 38 32 26 18 15 14 17 22 23 25 30 28 23 22 23 25 28 31 36 40 44
31 27 11 13 12 6 11 11 9 9 12 15 20 25 18 10 20 28 26 37 49 64 65 60 44 40 38 34 27 24 25 24 25 23 25 26 27 29 31 30 25 26 28 30 33 37 42 47 53
29 23 15 13 3 9 9 0 2 13 19 20 24 38 43 45 45 45 43 44 53 53 40 26 24 27 34 30 19 21 20 20 18 16 19 24 25 25 24 25 27 30 34 38 43 48 53 56 60
42 21 16 4 12 11 8 15 8 7 15 17 22 33 46 54 50 48 48 47 51 45 38 38 36 34 33 20 3 9 13 14 17 20 24 23 21 21 23 28 34 39 43 47 51 54 56 58 60
14 26 8 10 8 10 9 7 3 14 14 21 21 34 50 64 58 57 62 65 60 60 55 48 37 28 19 5 1 9 15 17 16 17 17 18 21 25 29 33 38 43 47 49 52 54 56 58 60
21 29 15 12 5 3 7 3 4 13 19 25 34 43 56 74 78 76 79 76 69 58 47 35 21 4 7 21 7 6 2 2 6 9 12 17 23 29 34 37 42 46 49 52 55 57 57 60 64
Wind_Direction_850mb
241 238 249 259 46 62 252 255 254 259 275 30 322 272 261 215 180 210 299 168 165 173 172 173 172 173 172 170 166 165 165 166 167 167 167 166 163 158 153 151 145 145 148 149 148 149 148 146 146
218 215 194 154 124 184 250 221 216 232 261 336 328 338 309 295 244 312 152 161 168 175 173 171 171 173 171 167 164 163 162 160 160 165 166 162 161 159 157 154 148 146 145 145 144 141 141 140 140
196 188 176 144 176 224 231 212 180 253 284 324 326 338 330 315 321 211 183 164 168 178 174 171 172 173 172 170 167 167 164 160 158 162 163 162 161 161 160 156 149 143 144 143 139 137 135 137 138
176 177 129 136 212 256 203 147 111 312 29 93 14 319 316 282 262 171 177 167 173 178 175 175 174 174 173 172 172 169 168 162 156 160 164 166 167 167 165 161 156 150 147 144 141 139 138 140 142
182 166 97 233 247 242 256 254 320 311 307 141 327 273 282 272 224 169 183 176 179 179 177 178 177 175 176 178 177 175 174 169 161 160 168 170 173 174 172 169 163 157 154 153 154 153 153 157 162
189 132 111 219 247 243 246 243 254 249 281 322 318 275 274 274 237 174 179 180 178 180 180 180 178 179 180 183 181 181 179 176 171 165 167 174 177 180 181 177 172 165 163 164 166 167 170 179 185
145 104 217 212 244 262 219 236 217 236 280 297 291 242 257 260 231 193 179 186 177 182 183 183 182 182 184 186 187 187 183 182 179 173 169 175 181 182 187 187 183 179 176 176 179 185 188 194 203
200 123 195 222 214 257 203 224 247 202 247 313 333 228 258 315 217 189 183 184 179 182 187 185 187 188 188 191 191 190 190 190 188 184 178 178 184 188 190 197 197 192 194 196 197 199 204 210 215
190 179 211 219 196 238 320 178 175 201 265 311 304 277 266 275 233 187 182 181 183 187 189 189 189 192 194 195 194 194 196 196 197 196 195 196 196 197 200 199 205 207 208 210 215 217 223 231 230
172 195 211 209 203 227 229 276 3 313 312 295 12 330 302 246 223 191 184 184 187 189 189 190 192 194 194 198 200 200 201 201 201 203 205 205 208 209 212 217 219 223 223 227 225 226 229 235 241
202 221 202 216 216 239 241 262 260 201 262 261 339 328 314 215 201 194 188 188 190 195 193 193 195 196 198 201 203 204 204 204 205 207 209 212 213 214 217 222 229 228 226 225 225 228 238 246 252
219 221 207 217 224 237 252 252 274 227 241 262 279 315 294 203 190 187 190 192 196 196 197 198 199 200 203 207 210 212 210 208 209 211 214 218 219 218 217 222 221 218 221 225 233 238 249 258 266
217 220 209 230 240 247 261 245 255 246 247 262 280 288 278 203 192 195 206 203 205 200 201 203 205 206 210 213 215 216 214 212 214 215 219 222 224 221 216 216 222 220 218 223 234 243 253 259 261
203 199 227 228 227 240 252 262 254 65 256 274 271 270 243 213 213 216 213 216 214 207 210 208 207 213 216 218 219 220 214 212 214 216 220 224 226 223 219 221 225 227 225 223 230 241 248 254 261
178 237 259 229 225 209 212 268 241 254 262 273 273 271 227 214 215 224 235 230 223 216 216 215 217 222 221 223 221 218 214 214 213 216 221 225 225 221 221 224 219 217 225 226 235 241 245 253 235
194 230 247 189 179 221 198 254 26 235 229 237 253 248 235 215 215 213 212 229 232 226 224 217 223 225 225 224 221 217 214 217 216 217 224 230 228 225 228 232 225 225 232 234 240 241 244 240 245
222 195 193 192 200 177 184 134 244 246 239 236 245 245 235 228 218 215 218 214 217 212 210 210 215 217 218 218 218 218 213 216 223 225 231 234 230 235 236 237 235 239 242 248 266 271 273 276 271
194 174 186 188 207 207 222 217 281 262 234 235 240 235 232 225 219 222 215 210 207 204 204 210 211 212 215 218 218 214 216 228 236 232 238 245 263 238 234 239 243 250 272 268 259 274 281 270 262
227 186 202 204 204 164 230 241 236 254 242 227 240 244 238 230 232 222 218 212 205 203 201 203 206 211 213 218 221 220 233 241 237 236 254 265 240 250 250 255 256 265 270 265 270 262 264 274 269
231 245 236 257 195 160 226 242 226 249 220 230 234 238 245 246 243 225 211 212 207 204 202 205 206 212 217 224 228 231 237 236 242 253 234 224 248 251 223 238 222 241 269 271 247 247 258 267 266
213 218 195 155 208 141 138 288 215 252 225 243 249 245 246 243 238 228 210 210 210 208 205 205 210 214 222 229 232 236 235 246 243 226 249 263 250 237 218 234 251 263 251 242 246 251 252 267 266
209 192 187 205 102 213 144 267 261 225 268 252 261 257 242 239 237 231 218 210 211 209 205 203 206 212 221 226 227 236 242 243 232 259 263 252 242 220 227 232 238 245 240 239 247 247 258 255 255
208 179 194 192 170 142 227 41 271 244 258 268 254 247 239 237 235 232 229 216 224 211 202 200 202 215 219 225 229 233 239 233 266 268 244 225 207 224 232 242 238 239 246 248 247 240 246 257 259
181 163 158 145 126 262 187 161 274 200 205 287 258 224 222 228 233 236 228 216 212 207 202 204 207 217 220 217 219 225 222 250 274 272 222 213 215 224 239 244 240 245 252 256 253 251 256 257 258
186 156 121 116 163 217 208 151 240 169 10 309 308 358 231 225 228 219 217 211 206 201 200 204 211 214 216 208 208 212 218 231 243 237 243 232 220 238 252 253 250 252 246 248 246 249 251 255 262
197 166 148 161 179 173 118 219 237 50 32 48 69 83 89 149 193 184 182 180 186 190 197 205 210 209 201 195 194 211 228 238 225 223 228 234 237 241 240 240 237 243 245 246 249 254 262 270 276
175 196 172 100 113 107 197 31 353 62 57 67 73 86 90 96 116 130 145 152 171 179 186 179 190 185 179 188 205 231 223 231 232 231 226 215 214 211 215 229 241 249 257 262 266 271 275 277 280
183 159 166 102 158 176 210 165 189 94 109 103 99 96 101 103 116 126 132 141 145 157 153 150 144 136 122 73 159 159 175 171 177 184 187 194 201 213 229 241 251 258 265 271 275 276 278 280 282
131 180 123 117 147 150 136 250 303 145 134 122 98 102 99 106 116 121 124 122 127 131 133 126 122 110 99 330 42 127 144 154 159 170 186 207 227 242 251 258 265 270 272 275 278 282 286 291 293
191 174 151 176 196 116 118 236 114 115 117 117 104 97 99 108 112 114 111 111 109 106 107 110 113 254 185 211 258 274 268 219 236 247 256 262 265 269 272 274 277 279 282 286 289 293 296 298 298